Time,TemperatureF,DewpointF,PressureIn,WindDirection,WindDirectionDegrees,WindSpeedMPH,WindSpeedGustMPH,Humidity,HourlyPrecipIn,Conditions,Clouds,dailyrainin,SoftwareType,DateUTC
2013-08-03 00:12:00,67.0,65.0,30.06,ESE,119,0.0,0.0,94,-99.99,,,-99.99,,2013-08-03 04:12:00,
2013-08-03 00:22:00,67.0,65.0,30.06,ESE,120,0.0,1.0,94,-99.99,,,-99.99,,2013-08-03 04:22:00,
2013-08-03 00:33:00,68.0,66.0,30.06,ESE,117,0.0,1.0,93,-99.99,,,-99.99,,2013-08-03 04:33:00,
2013-08-03 00:43:00,68.0,66.0,30.06,ESE,117,0.0,1.0,93,-99.99,,,-99.99,,2013-08-03 04:43:00,
2013-08-03 00:53:00,68.0,66.0,30.06,ESE,117,0.0,1.0,93,-99.99,,,-99.99,,2013-08-03 04:53:00,
2013-08-03 01:02:00,67.0,65.0,30.05,ESE,117,0.0,0.0,93,-99.99,,,-99.99,,2013-08-03 05:02:00,
2013-08-03 01:12:00,67.0,65.0,30.05,ESE,117,0.0,0.0,93,-99.99,,,-99.99,,2013-08-03 05:12:00,
2013-08-03 01:32:00,66.0,64.0,30.04,ESE,117,0.0,0.0,93,-99.99,,,-99.99,,2013-08-03 05:32:00,
2013-08-03 01:52:00,66.0,64.0,30.03,ESE,117,0.0,0.0,93,-99.99,,,-99.99,,2013-08-03 05:52:00,
2013-08-03 02:02:00,66.0,64.0,30.03,ESE,117,0.0,0.0,93,-99.99,,,-99.99,,2013-08-03 06:02:00,
2013-08-03 02:12:00,65.0,63.0,30.03,ESE,117,0.0,0.0,93,-99.99,,,-99.99,,2013-08-03 06:12:00,
2013-08-03 02:23:00,65.0,63.0,30.03,ESE,117,0.0,0.0,93,-99.99,,,-99.99,,2013-08-03 06:23:00,
2013-08-03 02:33:00,65.0,63.0,30.03,ESE,117,0.0,0.0,93,-99.99,,,-99.99,,2013-08-03 06:33:00,
2013-08-03 02:42:00,65.0,63.0,30.02,ESE,117,0.0,0.0,93,-99.99,,,-99.99,,2013-08-03 06:42:00,
2013-08-03 02:52:00,65.0,63.0,30.03,ESE,117,0.0,0.0,93,-99.99,,,-99.99,,2013-08-03 06:52:00,
2013-08-03 03:02:00,65.0,63.0,30.03,ESE,117,0.0,0.0,93,-99.99,,,-99.99,,2013-08-03 07:02:00,
2013-08-03 03:12:00,65.0,63.0,30.02,ESE,117,0.0,0.0,93,-99.99,,,-99.99,,2013-08-03 07:12:00,
2013-08-03 03:22:00,65.0,63.0,30.02,ESE,117,0.0,0.0,93,-99.99,,,-99.99,,2013-08-03 07:22:00,
2013-08-03 03:32:00,65.0,63.0,30.02,ESE,117,0.0,0.0,94,-99.99,,,-99.99,,2013-08-03 07:32:00,
2013-08-03 03:43:00,65.0,63.0,30.01,ESE,117,0.0,0.0,94,-99.99,,,-99.99,,2013-08-03 07:43:00,
2013-08-03 03:52:00,64.0,62.0,30.01,ESE,117,0.0,0.0,94,-99.99,,,-99.99,,2013-08-03 07:52:00,
2013-08-03 04:02:00,64.0,62.0,30.01,ESE,117,0.0,0.0,94,-99.99,,,-99.99,,2013-08-03 08:02:00,
2013-08-03 04:12:00,64.0,62.0,30.01,ESE,117,0.0,0.0,94,-99.99,,,-99.99,,2013-08-03 08:12:00,
2013-08-03 04:22:00,64.0,62.0,30.01,ESE,117,0.0,0.0,94,-99.99,,,-99.99,,2013-08-03 08:22:00,
2013-08-03 04:32:00,64.0,62.0,30.01,ESE,117,0.0,0.0,94,-99.99,,,-99.99,,2013-08-03 08:32:00,
2013-08-03 04:52:00,64.0,62.0,30.03,ESE,117,0.0,1.0,94,-99.99,,,-99.99,,2013-08-03 08:52:00,
2013-08-03 05:02:00,65.0,63.0,30.03,ESE,117,0.0,1.0,94,-99.99,,,-99.99,,2013-08-03 09:02:00,
2013-08-03 05:12:00,65.0,63.0,30.03,ESE,117,0.0,1.0,94,-99.99,,,-99.99,,2013-08-03 09:12:00,
2013-08-03 05:22:00,65.0,62.0,30.03,ESE,117,0.0,1.0,90,-99.99,,,-99.99,,2013-08-03 09:22:00,
2013-08-03 05:32:00,66.0,62.0,30.03,ESE,117,0.0,1.0,88,-99.99,,,-99.99,,2013-08-03 09:32:00,
2013-08-03 05:43:00,66.0,63.0,30.03,ESE,117,0.0,1.0,90,-99.99,,,-99.99,,2013-08-03 09:43:00,
2013-08-03 05:53:00,65.0,61.0,30.03,ESE,117,0.0,0.0,88,-99.99,,,-99.99,,2013-08-03 09:53:00,
2013-08-03 06:02:00,65.0,62.0,30.03,ESE,117,0.0,0.0,89,-99.99,,,-99.99,,2013-08-03 10:02:00,
2013-08-03 06:12:00,65.0,62.0,30.03,ESE,123,0.0,0.0,90,-99.99,,,-99.99,,2013-08-03 10:12:00,
2013-08-03 06:22:00,65.0,61.0,30.03,ESE,122,0.0,1.0,88,-99.99,,,-99.99,,2013-08-03 10:22:00,
2013-08-03 06:33:00,65.0,61.0,30.03,ESE,123,0.0,1.0,86,-99.99,,,-99.99,,2013-08-03 10:33:00,
2013-08-03 06:42:00,65.0,61.0,30.03,North,1,0.0,1.0,88,-99.99,,,-99.99,,2013-08-03 10:42:00,
2013-08-03 06:53:00,64.0,61.0,30.04,NNW,347,1.0,2.0,89,-99.99,,,-99.99,,2013-08-03 10:53:00,
2013-08-03 07:02:00,64.0,61.0,30.04,NNW,347,0.0,2.0,90,-99.99,,,-99.99,,2013-08-03 11:02:00,
2013-08-03 07:12:00,64.0,61.0,30.04,NNW,347,0.0,1.0,91,-99.99,,,-99.99,,2013-08-03 11:12:00,
2013-08-03 07:22:00,63.0,61.0,30.05,NW,319,0.0,2.0,92,-99.99,,,-99.99,,2013-08-03 11:22:00,
2013-08-03 07:32:00,64.0,62.0,30.04,NNW,340,1.0,2.0,92,-99.99,,,-99.99,,2013-08-03 11:32:00,
2013-08-03 07:43:00,64.0,62.0,30.04,NW,321,0.0,1.0,92,-99.99,,,-99.99,,2013-08-03 11:43:00,
2013-08-03 07:53:00,64.0,62.0,30.04,NW,321,0.0,1.0,92,-99.99,,,-99.99,,2013-08-03 11:53:00,
2013-08-03 08:03:00,64.0,62.0,30.04,NW,321,0.0,1.0,92,-99.99,,,-99.99,,2013-08-03 12:03:00,
2013-08-03 08:32:00,64.0,62.0,30.04,NW,308,1.0,2.0,92,-99.99,,,-99.99,,2013-08-03 12:32:00,
2013-08-03 08:43:00,64.0,62.0,30.05,WNW,302,1.0,2.0,93,-99.99,,,-99.99,,2013-08-03 12:43:00,
2013-08-03 08:52:00,64.0,62.0,30.05,WNW,302,1.0,2.0,93,-99.99,,,-99.99,,2013-08-03 12:52:00,
2013-08-03 09:02:00,64.0,62.0,30.04,NNW,332,1.0,2.0,94,-99.99,,,-99.99,,2013-08-03 13:02:00,
2013-08-03 09:12:00,64.0,62.0,30.04,NNW,332,1.0,2.0,94,-99.99,,,-99.99,,2013-08-03 13:12:00,
2013-08-03 09:22:00,64.0,62.0,30.04,NNW,328,1.0,2.0,94,-99.99,,,-99.99,,2013-08-03 13:22:00,
2013-08-03 09:33:00,65.0,63.0,30.03,NNW,330,0.0,2.0,94,-99.99,,,-99.99,,2013-08-03 13:33:00,
2013-08-03 09:43:00,65.0,63.0,30.04,NNW,330,0.0,2.0,94,-99.99,,,-99.99,,2013-08-03 13:43:00,
2013-08-03 09:52:00,65.0,63.0,30.04,NNW,330,0.0,2.0,94,-99.99,,,-99.99,,2013-08-03 13:52:00,
2013-08-03 10:02:00,65.0,63.0,30.04,NNW,330,0.0,2.0,94,-99.99,,,-99.99,,2013-08-03 14:02:00,
2013-08-03 10:13:00,65.0,63.0,30.04,NNW,330,0.0,2.0,94,-99.99,,,-99.99,,2013-08-03 14:13:00,
2013-08-03 10:22:00,65.0,63.0,30.04,SW,221,0.0,1.0,94,-99.99,,,-99.99,,2013-08-03 14:22:00,
2013-08-03 10:43:00,66.0,64.0,30.04,NNE,18,0.0,1.0,94,-99.99,,,-99.99,,2013-08-03 14:43:00,
2013-08-03 10:52:00,66.0,64.0,30.04,ENE,61,0.0,1.0,94,-99.99,,,-99.99,,2013-08-03 14:52:00,
2013-08-03 11:02:00,66.0,64.0,30.04,ENE,64,0.0,1.0,94,-99.99,,,-99.99,,2013-08-03 15:02:00,
2013-08-03 11:12:00,66.0,64.0,30.04,NNE,26,0.0,1.0,94,-99.99,,,-99.99,,2013-08-03 15:12:00,
2013-08-03 11:23:00,66.0,64.0,30.04,ESE,120,0.0,1.0,94,-99.99,,,-99.99,,2013-08-03 15:23:00,
2013-08-03 11:32:00,67.0,65.0,30.04,ESE,117,0.0,1.0,94,-99.99,,,-99.99,,2013-08-03 15:32:00,
2013-08-03 11:43:00,67.0,65.0,30.03,ESE,120,0.0,1.0,94,-99.99,,,-99.99,,2013-08-03 15:43:00,
2013-08-03 11:53:00,67.0,65.0,30.04,ESE,103,0.0,1.0,94,-99.99,,,-99.99,,2013-08-03 15:53:00,
2013-08-03 12:02:00,67.0,65.0,30.04,East,87,0.0,1.0,94,-99.99,,,-99.99,,2013-08-03 16:02:00,
2013-08-03 12:13:00,67.0,65.0,30.04,East,87,0.0,1.0,94,-99.99,,,-99.99,,2013-08-03 16:13:00,
2013-08-03 12:23:00,67.0,65.0,30.04,ESE,120,0.0,1.0,94,-99.99,,,-99.99,,2013-08-03 16:23:00,
2013-08-03 12:33:00,67.0,65.0,30.04,ESE,122,0.0,3.0,94,-99.99,,,-99.99,,2013-08-03 16:33:00,
2013-08-03 12:43:00,68.0,66.0,30.04,SSW,208,0.0,1.0,94,-99.99,,,-99.99,,2013-08-03 16:43:00,
2013-08-03 12:53:00,68.0,66.0,30.03,North,0,0.0,2.0,94,-99.99,,,-99.99,,2013-08-03 16:53:00,
2013-08-03 13:03:00,68.0,66.0,30.03,NNW,339,1.0,2.0,94,-99.99,,,-99.99,,2013-08-03 17:03:00,
2013-08-03 13:12:00,68.0,66.0,30.03,NNW,339,1.0,2.0,94,-99.99,,,-99.99,,2013-08-03 17:12:00,
2013-08-03 13:22:00,68.0,66.0,30.03,NNW,339,1.0,2.0,94,-99.99,,,-99.99,,2013-08-03 17:22:00,
2013-08-03 13:32:00,68.0,66.0,30.04,NNW,343,1.0,2.0,92,-99.99,,,-99.99,,2013-08-03 17:32:00,
2013-08-03 13:43:00,69.0,67.0,30.04,NNW,337,0.0,2.0,92,-99.99,,,-99.99,,2013-08-03 17:43:00,
2013-08-03 13:52:00,69.0,67.0,30.04,NNW,337,0.0,2.0,92,-99.99,,,-99.99,,2013-08-03 17:52:00,
2013-08-03 14:02:00,69.0,66.0,30.04,East,91,0.0,3.0,91,-99.99,,,-99.99,,2013-08-03 18:02:00,
2013-08-03 14:12:00,69.0,66.0,30.03,East,85,0.0,1.0,91,-99.99,,,-99.99,,2013-08-03 18:12:00,
2013-08-03 14:22:00,69.0,66.0,30.03,East,85,0.0,1.0,90,-99.99,,,-99.99,,2013-08-03 18:22:00,
2013-08-03 14:32:00,69.0,66.0,30.03,East,85,0.0,1.0,90,-99.99,,,-99.99,,2013-08-03 18:32:00,
2013-08-03 14:43:00,69.0,66.0,30.03,West,259,0.0,2.0,90,-99.99,,,-99.99,,2013-08-03 18:43:00,
2013-08-03 14:53:00,69.0,66.0,30.03,SE,143,0.0,1.0,90,-99.99,,,-99.99,,2013-08-03 18:53:00,
2013-08-03 15:03:00,70.0,67.0,30.03,West,271,0.0,1.0,90,-99.99,,,-99.99,,2013-08-03 19:03:00,
2013-08-03 15:12:00,71.0,68.0,30.02,WSW,256,0.0,3.0,89,-99.99,,,-99.99,,2013-08-03 19:12:00,
2013-08-03 15:22:00,72.0,68.0,30.02,ESE,123,0.0,3.0,87,-99.99,,,-99.99,,2013-08-03 19:22:00,
2013-08-03 15:32:00,72.0,68.0,30.02,SW,232,0.0,1.0,86,-99.99,,,-99.99,,2013-08-03 19:32:00,
2013-08-03 15:43:00,74.0,69.0,30.01,WSW,243,0.0,2.0,84,-99.99,,,-99.99,,2013-08-03 19:43:00,
2013-08-03 15:52:00,75.0,69.0,30.01,WNW,294,1.0,2.0,81,-99.99,,,-99.99,,2013-08-03 19:52:00,
2013-08-03 16:02:00,75.0,68.0,30.01,ENE,63,1.0,2.0,79,-99.99,,,-99.99,,2013-08-03 20:02:00,
2013-08-03 16:12:00,75.0,68.0,30.01,ENE,63,1.0,2.0,79,-99.99,,,-99.99,,2013-08-03 20:12:00,
2013-08-03 16:22:00,74.0,68.0,30.01,NW,319,1.0,5.0,81,-99.99,,,-99.99,,2013-08-03 20:22:00,
2013-08-03 16:32:00,74.0,68.0,30.01,NW,319,1.0,5.0,81,-99.99,,,-99.99,,2013-08-03 20:32:00,
2013-08-03 16:42:00,75.0,68.0,30.00,West,268,1.0,4.0,79,-99.99,,,-99.99,,2013-08-03 20:42:00,
2013-08-03 16:52:00,75.0,68.0,30.00,West,268,1.0,4.0,79,-99.99,,,-99.99,,2013-08-03 20:52:00,
2013-08-03 17:02:00,76.0,69.0,30.01,ESE,105,1.0,4.0,78,-99.99,,,-99.99,,2013-08-03 21:02:00,
2013-08-03 17:12:00,76.0,69.0,30.01,ESE,105,1.0,4.0,78,-99.99,,,-99.99,,2013-08-03 21:12:00,
2013-08-03 17:22:00,75.0,67.0,30.00,SE,125,1.0,3.0,76,-99.99,,,-99.99,,2013-08-03 21:22:00,
2013-08-03 17:32:00,74.0,67.0,30.00,NE,47,1.0,5.0,78,-99.99,,,-99.99,,2013-08-03 21:32:00,
2013-08-03 17:42:00,74.0,67.0,29.99,WNW,283,1.0,4.0,78,-99.99,,,-99.99,,2013-08-03 21:42:00,
2013-08-03 17:52:00,74.0,67.0,29.99,WNW,283,1.0,4.0,78,-99.99,,,-99.99,,2013-08-03 21:52:00,
2013-08-03 18:02:00,73.0,66.0,30.00,WSW,243,1.0,5.0,80,-99.99,,,-99.99,,2013-08-03 22:02:00,
2013-08-03 18:12:00,72.0,66.0,30.00,SSW,207,1.0,5.0,81,-99.99,,,-99.99,,2013-08-03 22:12:00,
2013-08-03 18:22:00,72.0,67.0,29.99,WSW,242,1.0,3.0,83,-99.99,,,-99.99,,2013-08-03 22:22:00,
2013-08-03 18:33:00,72.0,66.0,29.99,WSW,257,0.0,2.0,82,-99.99,,,-99.99,,2013-08-03 22:33:00,
2013-08-03 18:43:00,71.0,66.0,29.99,West,271,0.0,2.0,84,-99.99,,,-99.99,,2013-08-03 22:43:00,
2013-08-03 18:52:00,71.0,66.0,29.99,West,271,0.0,2.0,84,-99.99,,,-99.99,,2013-08-03 22:52:00,
2013-08-03 19:02:00,71.0,66.0,29.99,West,271,0.0,2.0,84,-99.99,,,-99.99,,2013-08-03 23:02:00,
2013-08-03 19:12:00,71.0,66.0,29.99,NNE,18,0.0,1.0,84,-99.99,,,-99.99,,2013-08-03 23:12:00,
2013-08-03 19:22:00,70.0,65.0,29.99,West,277,0.0,1.0,83,-99.99,,,-99.99,,2013-08-03 23:22:00,
2013-08-03 19:32:00,70.0,65.0,29.99,ESE,108,0.0,2.0,84,-99.99,,,-99.99,,2013-08-03 23:32:00,
2013-08-03 19:43:00,70.0,65.0,30.00,East,86,0.0,3.0,84,-99.99,,,-99.99,,2013-08-03 23:43:00,
2013-08-03 19:52:00,69.0,64.0,30.00,SE,135,0.0,3.0,84,-99.99,,,-99.99,,2013-08-03 23:52:00,
2013-08-03 20:03:00,69.0,64.0,30.00,East,95,0.0,1.0,85,-99.99,,,-99.99,,2013-08-04 00:03:00,
2013-08-03 20:12:00,69.0,64.0,30.01,East,87,0.0,2.0,85,-99.99,,,-99.99,,2013-08-04 00:12:00,
2013-08-03 20:22:00,68.0,64.0,30.00,East,89,0.0,3.0,86,-99.99,,,-99.99,,2013-08-04 00:22:00,
2013-08-03 20:32:00,68.0,64.0,30.01,East,89,0.0,0.0,87,-99.99,,,-99.99,,2013-08-04 00:32:00,
2013-08-03 20:42:00,68.0,64.0,30.01,East,89,0.0,0.0,87,-99.99,,,-99.99,,2013-08-04 00:42:00,
2013-08-03 20:53:00,68.0,64.0,30.01,East,89,0.0,0.0,87,-99.99,,,-99.99,,2013-08-04 00:53:00,
2013-08-03 21:02:00,68.0,64.0,30.01,East,89,0.0,0.0,87,-99.99,,,-99.99,,2013-08-04 01:02:00,
2013-08-03 21:12:00,66.0,63.0,30.01,East,89,0.0,0.0,90,-99.99,,,-99.99,,2013-08-04 01:12:00,
2013-08-03 21:22:00,66.0,63.0,30.02,East,89,0.0,0.0,90,-99.99,,,-99.99,,2013-08-04 01:22:00,
2013-08-03 21:32:00,66.0,63.0,30.02,East,89,0.0,0.0,91,-99.99,,,-99.99,,2013-08-04 01:32:00,
2013-08-03 21:42:00,66.0,63.0,30.02,East,89,0.0,0.0,91,-99.99,,,-99.99,,2013-08-04 01:42:00,
2013-08-03 21:53:00,65.0,63.0,30.03,ENE,64,0.0,0.0,92,-99.99,,,-99.99,,2013-08-04 01:53:00,
2013-08-03 22:03:00,65.0,63.0,30.03,ENE,64,0.0,0.0,92,-99.99,,,-99.99,,2013-08-04 02:03:00,
2013-08-03 22:12:00,65.0,63.0,30.03,ENE,64,0.0,0.0,92,-99.99,,,-99.99,,2013-08-04 02:12:00,
2013-08-03 22:22:00,65.0,63.0,30.03,ENE,64,0.0,1.0,92,-99.99,,,-99.99,,2013-08-04 02:22:00,
2013-08-03 22:32:00,65.0,63.0,30.03,ENE,63,0.0,0.0,92,-99.99,,,-99.99,,2013-08-04 02:32:00,
2013-08-03 22:42:00,64.0,62.0,30.04,ENE,64,0.0,0.0,93,-99.99,,,-99.99,,2013-08-04 02:42:00,
2013-08-03 22:52:00,64.0,62.0,30.04,ENE,63,0.0,0.0,93,-99.99,,,-99.99,,2013-08-04 02:52:00,
2013-08-03 23:02:00,64.0,62.0,30.04,ENE,63,0.0,0.0,93,-99.99,,,-99.99,,2013-08-04 03:02:00,
2013-08-03 23:12:00,64.0,62.0,30.04,ENE,63,0.0,0.0,93,-99.99,,,-99.99,,2013-08-04 03:12:00,
2013-08-03 23:22:00,64.0,62.0,30.04,ENE,60,0.0,0.0,94,-99.99,,,-99.99,,2013-08-04 03:22:00,
2013-08-03 23:32:00,64.0,62.0,30.04,ENE,60,0.0,0.0,94,-99.99,,,-99.99,,2013-08-04 03:32:00,
2013-08-03 23:42:00,64.0,62.0,30.04,ENE,60,0.0,0.0,94,-99.99,,,-99.99,,2013-08-04 03:42:00,
2013-08-03 23:52:00,64.0,62.0,30.03,ENE,64,0.0,0.0,94,-99.99,,,-99.99,,2013-08-04 03:52:00,